Overview Statistics Trail Chart Weather Telemetry Raw packets
 

This is the latest recevied weather packets stored in our database for station/object F1ZVN-13. If no packets are shown the sender has not sent any weather packets the latest 10 day(s).

<< 7 8 9 10 11 12 13 >>
Time Temp. Humidity Pressure Rain* Wind** Luminosity Snow
1788549425 20° C 30% 1024.3 hPa 0 mm 0 m/s - -
1788549306 20° C 26% 1024.2 hPa 0 mm 0 m/s - -
1788549186 20.56° C 26% 1024.3 hPa 0 mm 0 m/s - -
1788549062 20.56° C 26% 1024.2 hPa 0 mm 0 m/s - -
1788548945 20.56° C 26% 1024.2 hPa 0 mm 0 m/s - -
1788548819 20.56° C 24% 1024.2 hPa 0 mm 0 m/s - -
1788548784 20.56° C 28% 1024 hPa 0 mm 0 m/s - -
1788548698 20.56° C 28% 1024 hPa 0 mm 0 m/s - -
1788548575 20.56° C 25% 1024 hPa 0 mm 0 m/s - -
1788548455 21.11° C 25% 1024 hPa 0 mm 0 m/s - -
1788548336 21.11° C 28% 1023.9 hPa 0 mm 0 m/s - -
1788548090 21.11° C 33% 1023.9 hPa 0 mm 0 m/s - -
1788547970 20.56° C 29% 1024 hPa 0 mm 0 m/s - -
1788547849 20.56° C 25% 1024.2 hPa 0 mm 0 m/s - -
1788547728 20.56° C 26% 1024 hPa 0 mm 0 m/s - -
1788547605 20.56° C 25% 1024 hPa 0 mm 0 m/s - -
1788547485 20.56° C 27% 1024 hPa 0 mm 0 m/s - -
1788547365 20.56° C 29% 1024 hPa 0 mm 0 m/s - -
1788547243 20.56° C 24% 1024 hPa 0 mm 0 m/s - -
1788547120 20.56° C 23% 1024 hPa 0 mm 0 m/s - -
1788547000 21.11° C 23% 1024 hPa 0 mm 0 m/s - -
1788546878 21.11° C 23% 1024 hPa 0 mm 0 m/s - -
1788546758 21.11° C 23% 1024 hPa 0 mm 0 m/s - -
1788546638 21.11° C 25% 1024 hPa 0 mm 0 m/s - -
1788546393 21.11° C 23% 1023.9 hPa 0 mm 0 m/s - -

* Rain latest hour (hover to see other rain measurements)
** Current wind speed in m/s (hover to see current wind gust speed)